[[{"header":{"parameterUnit":"m.s-1","parameterCategory":1,"la1":30.2991,"la2":30.254,"lo1":-89.0895,"lo2":-89.0444,"dy":0.0017,"dx":0.0017,"nx":28,"ny":28,"refTime":"2024-04-30T09:00:00:Z","depth":0,"parameterNumber":2,"parameterNumberName":"U-component_of_WINDS"},"data":[0,0,0,0,0,0,0,0,0,0,0,0,0,0,0,0,0,0,0,0,0,0,0,0,0,0,0,0,0,0,0,0,0,0,0,0,0,0,0,0,0,0,0,0,0,0,0,0,0,0,0,0,0,0,0,0,0,0,1.6802,1.6804,0,1.6952,1.6954,1.6956,1.6992,1.6991,1.699,1.6989,1.7146,1.7151,1.7157,0,0,0,0,0,0,0,0,0,0,0,0,0,1.6551,1.6555,1.6802,1.6804,1.6806,1.6952,1.6954,1.6956,1.6992,1.6991,1.699,1.6989,1.7145,1.7151,1.7157,0,0,0,0,0,0,0,0,0,0,0,0,0,1.6676,1.6557,1.6802,1.6841,1.6846,1.6951,1.6954,1.6957,1.6992,1.6991,1.6989,1.6988,1.7143,1.715,1.7158,1.7235,0,0,1.7181,1.7185,0,0,0,0,0,0,0,0,1.6669,1.6686,1.6834,1.6839,1.6845,1.6952,1.6923,1.705,1.6993,1.6937,1.6989,1.6987,1.7083,1.7096,1.7127,1.7243,1.7249,1.7182,1.7187,1.719,1.7192,0,0,0,0,0,0,0,1.6661,1.6679,1.6861,1.6836,1.6842,1.6853,1.6869,1.6947,1.7017,1.6942,1.6945,1.6962,1.7086,1.712,1.7131,1.7252,1.7182,1.7189,1.7193,1.7196,1.744,1.7442,0,0,0,0,0,0,1.6644,1.6672,1.6857,1.6866,1.6751,1.6859,1.6877,1.6919,1.7016,1.7029,1.6963,1.6963,1.7107,1.7122,1.7137,1.7235,1.719,1.7197,1.7202,1.7438,1.7441,1.7443,0,0,0,0,0,0,1.6639,1.666,1.6851,1.677,1.6795,1.6865,1.6912,1.6923,1.6956,1.7032,1.7045,1.6985,1.7107,1.7126,1.7211,1.7241,1.7201,1.7208,1.7436,1.7439,1.7442,1.7431,0,0,0,0,0,0,1.6631,1.6658,1.6687,1.677,1.6799,1.692,1.6913,1.6927,1.6969,1.6971,1.7056,1.7068,1.7107,1.7199,1.7218,1.7251,1.7214,1.7434,1.7438,1.7441,1.7429,1.7433,1.7436,0,0,0,0,0,1.6622,1.6679,1.6688,1.6711,1.6836,1.6922,1.6939,1.6981,1.6971,1.7002,1.7051,1.7066,1.7234,1.7207,1.7229,1.7265,1.7432,1.7437,1.7441,1.7427,1.7432,1.7436,0,0,0,0,0,0,1.6598,1.669,1.6702,1.6786,1.6846,1.6928,1.6968,1.6985,1.7049,1.7048,1.7099,1.7118,1.72,1.7241,1.7209,1.7346,1.7333,1.7342,1.7316,1.7321,1.7325,1.7313,1.722,0,0,0,0,0,1.6602,1.6663,1.6741,1.6808,1.6837,1.6897,1.6936,1.6964,1.7028,1.7054,1.7109,1.7172,1.7239,1.7282,1.7348,1.7435,1.7455,1.747,1.7474,1.7477,1.7484,1.7534,1.7542,1.7457,1.7457,1.7456,0,0,1.6612,1.667,1.6705,1.6805,1.6854,1.6917,1.6918,1.6985,1.7032,1.7064,1.7147,1.719,1.7264,1.735,1.7391,1.7387,1.7512,1.7482,1.7484,1.749,1.754,1.7548,1.7555,1.7459,1.7459,1.7458,0,0,1.6663,1.6712,1.6774,1.6823,1.6898,1.6938,1.6952,1.7032,1.7062,1.7146,1.7171,1.723,1.7344,1.7396,1.7438,1.7509,1.7526,1.7529,1.7549,1.7598,1.7605,1.7611,1.7637,1.7646,1.7536,1.7536,1.7536,0,1.6666,1.676,1.6804,1.6869,1.6913,1.6944,1.7008,1.7054,1.7147,1.7177,1.7171,1.7316,1.7368,1.7468,1.7485,1.7517,1.7537,1.752,1.76,1.7607,1.7613,1.7639,1.7649,1.7536,1.7536,1.7536,1.7536,0,1.6761,1.6827,1.6868,1.6956,1.7004,1.7069,1.7123,1.7167,1.7191,1.7232,1.7318,1.7382,1.7462,1.7487,1.7511,1.7591,1.7586,1.7589,1.7578,1.7621,1.7646,1.7656,1.7536,1.7536,1.7536,1.7536,0,0,1.68,1.6911,1.6926,1.6967,1.7052,1.7104,1.7171,1.7248,1.7286,1.7349,1.7407,1.7504,1.7508,1.7555,1.7585,1.7628,1.7682,1.7626,1.7629,1.7635,1.7775,1.7772,1.7782,1.7693,1.7695,1.7697,1.7769,0,1.6861,1.6979,1.7021,1.712,1.7182,1.7213,1.7271,1.7331,1.7371,1.7431,1.7476,1.7544,1.7544,1.7572,1.7616,1.7666,1.7711,1.7661,1.7749,1.7752,1.773,1.7795,1.7792,1.7857,1.7779,1.778,1.7782,0,1.6948,1.7012,1.7116,1.7195,1.7222,1.7274,1.7349,1.7405,1.7474,1.7501,1.7553,1.7581,1.7654,1.7638,1.774,1.7706,1.7745,1.7775,1.7778,1.7788,1.7769,1.7808,1.7878,1.7888,1.7797,1.7796,1.7795,0,1.6966,1.7079,1.7156,1.719,1.7283,1.7319,1.736,1.7427,1.7472,1.7538,1.7567,1.7641,1.7682,1.774,1.7787,1.7771,1.7885,1.7873,1.7911,1.7909,1.7933,1.7931,1.8011,1.7957,1.7957,1.7957,1.7957,0,1.703,1.7093,1.7165,1.7213,1.7285,1.7333,1.7404,1.7447,1.7507,1.7564,1.7596,1.765,1.7709,1.7772,1.781,1.7889,1.7907,1.7932,1.7941,1.7929,1.7926,1.7955,1.7952,1.796,1.7959,1.7959,1.7958,0,1.7063,1.7114,1.72,1.7282,1.7304,1.7353,1.7424,1.7472,1.7514,1.7587,1.7607,1.7674,1.7748,1.7802,1.7898,1.7924,1.8009,1.8018,1.7986,1.799,1.8025,1.8021,1.8127,1.8144,1.8078,1.8078,1.8079,0,1.71,1.715,1.7236,1.7277,1.7317,1.7382,1.7427,1.7477,1.7524,1.7606,1.7645,1.7722,1.7786,1.7904,1.7962,1.8037,1.8048,1.808,1.806,1.8046,1.805,1.8046,1.8052,1.8083,1.8084,1.8084,1.8084,0,1.7162,1.7185,1.7248,1.7321,1.7374,1.7434,1.7495,1.7526,1.7587,1.7638,1.7714,1.7764,1.7862,1.7939,1.8019,1.8063,1.8085,1.809,1.8103,1.8091,1.807,1.8083,1.7994,1.8088,1.8087,1.8087,1.8087,1.8087,1.7199,1.7245,1.7313,1.7383,1.7434,1.749,1.7539,1.7587,1.7651,1.7735,1.7761,1.784,1.791,1.802,1.8065,1.8129,1.8127,1.8146,1.815,1.8154,1.8154,1.806,1.8144,1.8144,1.8144,1.8144,1.8144,0,1.7263,1.7309,1.7373,1.7456,1.7511,1.7526,1.7594,1.764,1.7709,1.7771,1.7833,1.7922,1.7997,1.8061,1.8138,1.8177,1.8189,1.8196,1.8194,1.8204,1.815,1.8132,1.8185,1.8185,1.8185,1.8185,1.8185,1.8185,1.7303,1.7381,1.7412,1.7516,1.7562,1.7639,1.7677,1.7729,1.7779,1.7876,1.7938,1.7979,1.8043,1.8125,1.8195,1.8212,1.8239,1.8244,1.8263,1.8212,1.8208,1.8203,1.8186,1.8249,1.825,1.8312,1.8312,1.8313]},{"header":{"parameterUnit":"m.s-1","parameterCategory":1,"la1":30.2991,"la2":30.254,"lo1":-89.0895,"lo2":-89.0444,"dy":0.0017,"dx":0.0017,"nx":28,"ny":28,"refTime":"2024-04-30T09:00:00:Z","depth":0,"parameterNumber":3,"parameterNumberName":"V-component_of_WINDS"},"data":[0,0,0,0,0,0,0,0,0,0,0,0,0,0,0,0,0,0,0,0,0,0,0,0,0,0,0,0,0,0,0,0,0,0,0,0,0,0,0,0,0,0,0,0,0,0,0,0,0,0,0,0,0,0,0,0,0,0,-1.2256,-1.2255,0,-1.2204,-1.2204,-1.2203,-1.2179,-1.2179,-1.2179,-1.2179,-1.2121,-1.212,-1.2118,0,0,0,0,0,0,0,0,0,0,0,0,0,-1.2329,-1.2328,-1.2256,-1.2255,-1.2255,-1.2204,-1.2204,-1.2203,-1.2179,-1.2179,-1.2179,-1.218,-1.2122,-1.212,-1.2118,0,0,0,0,0,0,0,0,0,0,0,0,0,-1.2289,-1.2328,-1.2256,-1.2237,-1.2235,-1.2205,-1.2204,-1.2203,-1.2179,-1.2179,-1.2179,-1.218,-1.2123,-1.212,-1.2118,-1.2101,0,0,-1.2111,-1.211,0,0,0,0,0,0,0,0,-1.2292,-1.2287,-1.224,-1.2238,-1.2236,-1.2198,-1.2208,-1.2169,-1.2179,-1.22,-1.2179,-1.218,-1.2147,-1.2142,-1.2132,-1.2099,-1.2096,-1.211,-1.2109,-1.2108,-1.2107,0,0,0,0,0,0,0,-1.2295,-1.2289,-1.2235,-1.224,-1.2237,-1.2229,-1.2224,-1.2201,-1.2173,-1.2198,-1.2197,-1.2191,-1.2145,-1.2135,-1.2131,-1.2095,-1.211,-1.2108,-1.2107,-1.2106,-1.2046,-1.2046,0,0,0,0,0,0,-1.2301,-1.2291,-1.2237,-1.2234,-1.2265,-1.2228,-1.2222,-1.221,-1.2174,-1.2168,-1.2191,-1.219,-1.2139,-1.2134,-1.2129,-1.2107,-1.2108,-1.2106,-1.2104,-1.2046,-1.2046,-1.2045,0,0,0,0,0,0,-1.2303,-1.2296,-1.2239,-1.2262,-1.2254,-1.2227,-1.2214,-1.2209,-1.2198,-1.2168,-1.2163,-1.2185,-1.2139,-1.2132,-1.2109,-1.2105,-1.2105,-1.2102,-1.2046,-1.2046,-1.2046,-1.2064,0,0,0,0,0,0,-1.2305,-1.2297,-1.2292,-1.2262,-1.2253,-1.2222,-1.2214,-1.2208,-1.2195,-1.2193,-1.2161,-1.2156,-1.2138,-1.2112,-1.2106,-1.2101,-1.21,-1.2046,-1.2046,-1.2046,-1.2063,-1.2064,-1.2065,0,0,0,0,0,-1.2308,-1.2298,-1.2292,-1.2285,-1.2246,-1.2221,-1.2216,-1.2197,-1.2195,-1.2188,-1.2169,-1.2157,-1.2106,-1.211,-1.2103,-1.2097,-1.2046,-1.2046,-1.2046,-1.2063,-1.2064,-1.2065,0,0,0,0,0,0,-1.2325,-1.2293,-1.2286,-1.2267,-1.2247,-1.2217,-1.2209,-1.2199,-1.2178,-1.2177,-1.2153,-1.2145,-1.2124,-1.2108,-1.2114,-1.208,-1.2075,-1.2073,-1.2091,-1.2092,-1.2092,-1.2096,-1.2099,0,0,0,0,0,-1.2327,-1.2312,-1.2284,-1.2269,-1.226,-1.2236,-1.2225,-1.2212,-1.219,-1.2181,-1.216,-1.2138,-1.2117,-1.2103,-1.2082,-1.2061,-1.2054,-1.2054,-1.2055,-1.2055,-1.2054,-1.2042,-1.2041,-1.2044,-1.2044,-1.2044,0,0,-1.233,-1.2311,-1.2302,-1.2272,-1.2256,-1.2239,-1.2229,-1.2211,-1.2198,-1.2178,-1.2155,-1.2139,-1.2112,-1.2091,-1.208,-1.2077,-1.2051,-1.2055,-1.2056,-1.2054,-1.2041,-1.2041,-1.2041,-1.2044,-1.2044,-1.2044,0,0,-1.2328,-1.2312,-1.2298,-1.2282,-1.2258,-1.2242,-1.2239,-1.2211,-1.22,-1.2178,-1.2162,-1.2145,-1.2109,-1.2092,-1.2078,-1.2069,-1.2057,-1.2063,-1.2066,-1.2055,-1.2055,-1.2054,-1.2051,-1.205,-1.2062,-1.2062,-1.2062,0,-1.2334,-1.231,-1.2292,-1.2276,-1.2263,-1.2245,-1.2231,-1.2215,-1.2185,-1.2176,-1.2173,-1.2129,-1.2109,-1.2083,-1.2082,-1.2071,-1.2066,-1.2066,-1.2057,-1.2056,-1.2055,-1.2052,-1.2051,-1.2062,-1.2062,-1.2062,-1.2062,0,-1.2319,-1.2302,-1.2294,-1.2267,-1.2253,-1.2237,-1.2216,-1.2204,-1.2192,-1.2177,-1.2154,-1.213,-1.2105,-1.2098,-1.2085,-1.2069,-1.2068,-1.2062,-1.2056,-1.2056,-1.2053,-1.2051,-1.2064,-1.2063,-1.2063,-1.2063,0,0,-1.2325,-1.229,-1.2287,-1.2275,-1.2247,-1.2233,-1.2216,-1.2193,-1.2183,-1.2162,-1.2147,-1.2118,-1.2112,-1.2097,-1.2082,-1.2072,-1.2067,-1.2066,-1.2065,-1.2067,-1.2048,-1.2053,-1.2052,-1.2059,-1.2059,-1.2059,-1.205,0,-1.2318,-1.229,-1.2274,-1.2251,-1.2235,-1.2219,-1.2205,-1.2185,-1.2171,-1.2154,-1.2136,-1.2116,-1.211,-1.21,-1.209,-1.207,-1.2063,-1.207,-1.2044,-1.2043,-1.2051,-1.205,-1.2056,-1.2049,-1.2049,-1.2049,-1.2048,0,-1.2306,-1.2289,-1.2265,-1.2241,-1.2233,-1.2221,-1.2198,-1.2183,-1.216,-1.215,-1.2134,-1.212,-1.21,-1.2097,-1.207,-1.2076,-1.2064,-1.2053,-1.2052,-1.2048,-1.2046,-1.2047,-1.2046,-1.2045,-1.2046,-1.2046,-1.2046,0,-1.2313,-1.2283,-1.2266,-1.2256,-1.2226,-1.2218,-1.2205,-1.2183,-1.217,-1.215,-1.2141,-1.2118,-1.2106,-1.2088,-1.2068,-1.2068,-1.2042,-1.2038,-1.2032,-1.2033,-1.2027,-1.2028,-1.2025,-1.202,-1.202,-1.202,-1.202,0,-1.2308,-1.2294,-1.2269,-1.2258,-1.2242,-1.2223,-1.2207,-1.2192,-1.2173,-1.2158,-1.2142,-1.2128,-1.2102,-1.2085,-1.2069,-1.2049,-1.2043,-1.2033,-1.2029,-1.2035,-1.2036,-1.2026,-1.2026,-1.202,-1.202,-1.202,-1.202,0,-1.2312,-1.2295,-1.2275,-1.2249,-1.2242,-1.2232,-1.2209,-1.2197,-1.2182,-1.2163,-1.2157,-1.2133,-1.2111,-1.209,-1.206,-1.205,-1.203,-1.2024,-1.2038,-1.2035,-1.2031,-1.2032,-1.2022,-1.2019,-1.2017,-1.2017,-1.2017,0,-1.231,-1.2299,-1.2273,-1.2263,-1.2251,-1.2234,-1.2222,-1.2203,-1.219,-1.2164,-1.2155,-1.2133,-1.2115,-1.2081,-1.2059,-1.2037,-1.203,-1.2028,-1.2027,-1.2033,-1.203,-1.2031,-1.203,-1.2029,-1.2029,-1.2029,-1.2029,0,-1.2307,-1.2299,-1.2283,-1.2264,-1.225,-1.2233,-1.2216,-1.2208,-1.2185,-1.2171,-1.2151,-1.2136,-1.2107,-1.2085,-1.206,-1.2045,-1.2033,-1.203,-1.2028,-1.2033,-1.2041,-1.2037,-1.204,-1.203,-1.203,-1.203,-1.203,-1.203,-1.2307,-1.2298,-1.2278,-1.226,-1.2246,-1.223,-1.2218,-1.2203,-1.2185,-1.2162,-1.2151,-1.213,-1.2107,-1.2073,-1.2058,-1.2041,-1.2037,-1.2034,-1.2033,-1.2032,-1.2034,-1.2045,-1.2036,-1.2036,-1.2036,-1.2036,-1.2036,0,-1.2304,-1.2291,-1.2275,-1.2252,-1.2238,-1.2231,-1.2211,-1.2199,-1.2182,-1.2163,-1.2146,-1.2121,-1.21,-1.2078,-1.2055,-1.2045,-1.2039,-1.204,-1.204,-1.2036,-1.2038,-1.2042,-1.2045,-1.2045,-1.2045,-1.2045,-1.2045,-1.2045,-1.23,-1.2283,-1.2273,-1.2249,-1.2235,-1.2216,-1.2206,-1.2191,-1.2176,-1.2151,-1.2134,-1.212,-1.2099,-1.2075,-1.2055,-1.2049,-1.2041,-1.2043,-1.2036,-1.2037,-1.2036,-1.2036,-1.204,-1.2042,-1.2042,-1.2036,-1.2036,-1.2036]}]]